weather.gov     
National Weather Service

Regional Weather Roundup
NWS Homepage
This page is being discontinued on March 12, 2014.
The same data is available at this site. Please update your bookmarks.
Thank you, and we apologize for the inconvenience.
Please send an email to SR-SRH.Webmaster@noaa.gov with any concerns.


Current Version
Previous Version:    01  02  03  04  05  06  07  08  09  10  11  12  13  14  15  16  17  18  19  20  21  22  23  24  25  26  27  
[Printable]
589
ASUS41 KLWX 230010
RWRLWX

REGIONAL WEATHER ROUNDUP
NATIONAL WEATHER SERVICE BALTIMORE MD/WASHINGTON DC
700 PM EST MON DEC 22 2014

Note: "FAIR" indicates few or no clouds below 12,000 feet
with no significant weather and/or obstructions to visibility.
 TC=TEMPERATURE CELSIUS

 * =Non NWS site. Station does not report precipitation (e.g. rain,
    snow, etc.), thunder, or fog.

DCZ001-MDZ009-015-VAZ040>042-051-053>054-230100-
WASHINGTON METRO

CITY           SKY/WX    TMP DP  RH WIND       PRES   REMARKS
WASHINGTON NAT LGT RAIN  37  34  87 N7        30.17R
DULLES         LGT RAIN  32  31  96 N8        30.17R FOG     WCI  25
ANDREWS AFB    CLOUDY    36  34  93 N7        30.13F FOG
FT BELVOIR     RAIN      36  32  87 NW6       30.18R FOG
QUANTICO       LGT RAIN  36  32  85 N6        30.18R
COLLEGE PARK*    N/A     36  36 100 N6        30.16S
LEESBURG*      MIX PCPN  34  34 100 N7        30.20R
MANASSAS*      CLOUDY    34  34 100 NW7       30.18  FOG
GAITHERSBURG*  CLOUDY    34  30  86 CALM      30.19R

$$

MDZ006>007-011-014-230100-
BALTIMORE METRO

CITY           SKY/WX    TMP DP  RH WIND       PRES   REMARKS
BWI AIRPORT    LGT RAIN  36  34  93 NW5       30.15F FOG
MD SCIENCE CTR   N/A     37  35  92 MISG      30.15F
MARTIN STATE   LGT RAIN  37  37 100 N5        30.17F
ANNAPOLIS      CLOUDY    37  34  89 N6        30.15F FOG
FORT MEADE*      N/A     34  32  93 N3        30.18S

$$

MDZ012-015-019>023-230100-
MARYLAND EASTERN SHORE

CITY           SKY/WX    TMP DP  RH WIND       PRES   REMARKS
OCEAN CITY     CLOUDY    48  45  89 NE8       30.10S
SALISBURY      CLOUDY    47  43  86 NE8       30.10R
BAY BRIDGE AP* DRIZZLE   37  36  93 N9        30.15S
CAMBRIDGE*     CLOUDY    41  37  87 N8        30.11R
EASTON*        CLOUDY    39  39 100 N7        30.17S FOG

$$

MDZ017>025-230100-
SOUTHERN MARYLAND

CITY           SKY/WX    TMP DP  RH WIND       PRES   REMARKS
PATUXENT RIVER LGT RAIN  39  36  89 N8        30.12R FOG
ST INIGOES     CLOUDY    40  38  93 VRB5      30.12R FOG
LEONARDTOWN*   CLOUDY    36  36 100 CALM      30.15R

$$

MDZ003>005-230100-
NORTH CENTRAL MARYLAND

CITY           SKY/WX    TMP DP  RH WIND       PRES   REMARKS
FREDERICK*     CLOUDY    34  30  86 CALM      30.21S FOG
HAGERSTOWN APT MIX PCPN  33  31  92 N3        30.18R FOG
WESTMINSTER*   MIX PCPN  32  30  93 CALM      30.15R

$$

MDZ501>502-230100-
WESTERN MARYLAND

CITY           SKY/WX    TMP DP  RH WIND       PRES   REMARKS
OAKLAND*       FOG       27 N/A N/A SE14G20   29.97S VSB 1/4 WCI  15
CUMBERLAND*    CLOUDY    32  32 100 CALM      30.18S

$$

VAZ025>031-230100-
SHENANDOAH VALLEY

CITY           SKY/WX    TMP DP  RH WIND       PRES   REMARKS
WINCHESTER*    CLOUDY    32  30  93 CALM      30.17R FOG
FRONT ROYAL*   CLOUDY    32  32 100 NE3       30.15F
LURAY*         CLOUDY    34  34 100 NE5       30.13F FOG
NEW MARKET*    CLOUDY    32  31  97 NE3       30.12F
STAUNTON*      CLOUDY    33  32  94 N5        30.13S FOG
WAYNESBORO*    CLOUDY    32  32  99 CALM      30.10S

$$

WVZ021-048>050-054>055-230100-
EASTERN WEST VIRGINIA PANHANDLE

CITY           SKY/WX    TMP DP  RH WIND       PRES   REMARKS
MARTINSBURG    LGT RAIN  33  29  85 N5        30.18S FOG
PETERSBURG*    CLOUDY    31  31 100 CALM      30.14S FOG

$$

VAZ036>039-050-230100-
CENTRAL FOOTHILLS

CITY           SKY/WX    TMP DP  RH WIND       PRES   REMARKS
CHARLOTTESVILL LGT RAIN  34  33  96 N5        30.12F FOG
CULPEPER*      DRIZZLE   36  34  93 N8        30.16F
ORANGE*        CLOUDY    34  34 100 N9        30.14F FOG     WCI  26
GORDONSVILLE*  CLOUDY    34  32  94 NE7       30.12F FOG
WARRENTON*     DRIZZLE   35  35 100 N5        30.16S

$$

VAZ055>057-230100-
NORTH AND CENTRAL PIEDMONT

CITY           SKY/WX    TMP DP  RH WIND       PRES   REMARKS
FREDERICKSBRG* CLOUDY    36  36 100 N8        30.15R FOG
STAFFORD*      DRIZZLE   33  33 100 N7        30.20R

$$

NCZ024-NYZ072-PAZ021-071-VAZ022-071-230100-
OTHER REGIONAL OBSERVATIONS

CITY           SKY/WX    TMP DP  RH WIND       PRES   REMARKS
NEW YORK CITY  CLOUDY    43  39  86 NE5       30.24S
PHILADELPHIA   CLOUDY    41  37  86 NE8       30.19S FOG
PITTSBURGH     CLOUDY    39  30  70 E9        29.96F
ROANOKE        DRIZZLE   36  34  92 NE3       30.11R FOG
RICHMOND       CLOUDY    37  34  89 N8        30.10S FOG
RALEIGH        DRIZZLE   38  35  89 VRB6      30.07F FOG

$$

ANZ530>537-230100-
MARINE OBSERVATIONS

STATION/POSITION TIME  TEMP    WIND        PRES
                       AIR SEA DIR/SP/G
                 (UTC) (F)     (DEG/KT/KT) (MB)
THOMAS PT LIGHT  0000   37 41  360/ 13/ 14 1021.6F
BALT KEY BRIDGE  0000   36     350/  7/  8 1021.1F
COVE POINT       0000   38      20/ 14/ 17 1019.8F
LEWISETTA        0000   40 41  350/  6/  9 1019.7R
SOLOMONS ISLAND  0000      42                N/A
PINEY POINT      0000          360/ 11/ 11   N/A

$$





U.S. Dept. of Commerce
NOAA National Weather Service
1325 East West Highway
Silver Spring, MD 20910
E-mail: w-nws.webmaster@noaa.gov
Page last modified: May 16, 2007
NATIONAL WEATHER SERVICE: for Safety, for Work, for Fun - FOR LIFE